• In Kazakhstan
  • List of Countries
  • For 7 days
  • Water Temperature
  • Satellite Maps
  • Weather Map
  • News
  • Weather Widgets
  • user-avatar
    Login

    Hourly Weather La Rioja

    Today, 18 November, Sunday

    Time Temperature Precipitation Wind Pressure Humidity
    00:00 +27°C° 0 mm 5 mps 716 mmHg 43%
    01:00 +26°C° 0 mm 5 mps 717 mmHg 44%
    02:00 +25°C° 0 mm 5 mps 717 mmHg 45%
    03:00 +23°C° 0 mm 4 mps 717 mmHg 43%
    04:00 +22°C° 0 mm 4 mps 718 mmHg 42%
    05:00 +22°C° 0 mm 3 mps 718 mmHg 41%
    06:00 +22°C° 0 mm 3 mps 718 mmHg 40%
    07:00 +22°C° 0 mm 3 mps 718 mmHg 39%
    08:00 +24°C° 0 mm 3 mps 719 mmHg 38%
    09:00 +25°C° 0 mm 4 mps 719 mmHg 38%
    10:00 +26°C° 0 mm 4 mps 718 mmHg 37%
    11:00 +27°C° 0 mm 4 mps 718 mmHg 36%
    12:00 +28°C° 0 mm 5 mps 717 mmHg 35%
    13:00 +29°C° 0 mm 5 mps 716 mmHg 33%
    14:00 +30°C° 0 mm 5 mps 716 mmHg 32%
    15:00 +30°C° 0 mm 5 mps 715 mmHg 31%
    16:00 +30°C° 0 mm 5 mps 715 mmHg 30%
    17:00 +30°C° 0 mm 5 mps 714 mmHg 29%
    18:00 +29°C° 0 mm 5 mps 714 mmHg 31%
    19:00 +28°C° 0 mm 4 mps 715 mmHg 32%
    20:00 +27°C° 0 mm 4 mps 715 mmHg 34%
    21:00 +26°C° 0 mm 3 mps 716 mmHg 37%
    22:00 +26°C° 0 mm 3 mps 716 mmHg 39%
    23:00 +25°C° 0 mm 2 mps 716 mmHg 41%

    Tomorrow, 19 November, Monday

    Time Temperature Precipitation Wind Pressure Humidity
    00:00 +24°C° 0 mm 2 mps 716 mmHg 43%
    01:00 +24°C° 0 mm 2 mps 716 mmHg 45%
    02:00 +22°C° 0 mm 3 mps 715 mmHg 46%
    03:00 +23°C° 0 mm 2 mps 715 mmHg 48%
    04:00 +21°C° 0 mm 2 mps 715 mmHg 50%
    05:00 +21°C° 0 mm 2 mps 714 mmHg 52%
    06:00 +23°C° 0 mm 2 mps 714 mmHg 49%
    07:00 +24°C° 0 mm 2 mps 715 mmHg 46%
    08:00 +25°C° 0 mm 2 mps 715 mmHg 43%
    09:00 +26°C° 0 mm 2 mps 714 mmHg 39%
    10:00 +28°C° 0 mm 3 mps 714 mmHg 35%
    11:00 +30°C° 0 mm 3 mps 714 mmHg 32%
    12:00 +31°C° 0 mm 3 mps 713 mmHg 29%
    13:00 +33°C° 0 mm 3 mps 712 mmHg 27%
    14:00 +34°C° 0 mm 3 mps 712 mmHg 25%
    15:00 +34°C° 0 mm 4 mps 711 mmHg 25%
    16:00 +35°C° 0 mm 4 mps 711 mmHg 25%
    17:00 +35°C° 0 mm 4 mps 710 mmHg 25%
    18:00 +34°C° 0 mm 4 mps 711 mmHg 29%
    19:00 +33°C° 0 mm 4 mps 711 mmHg 33%
    20:00 +30°C° 0 mm 4 mps 712 mmHg 37%
    21:00 +29°C° 0 mm 4 mps 713 mmHg 41%
    22:00 +29°C° 0 mm 3 mps 713 mmHg 45%
    23:00 +28°C° 0 mm 3 mps 714 mmHg 49%

    Day after tomorrow, 20 November, Tuesday

    Time Temperature Precipitation Wind Pressure Humidity
    00:00 +27°C° 0 mm 3 mps 714 mmHg 52%
    01:00 +26°C° 0 mm 2 mps 714 mmHg 55%
    02:00 +26°C° 0 mm 2 mps 713 mmHg 58%
    03:00 +25°C° 0 mm 2 mps 713 mmHg 60%
    04:00 +24°C° 0 mm 2 mps 713 mmHg 62%
    05:00 +24°C° 0 mm 2 mps 713 mmHg 64%
    06:00 +25°C° 0 mm 2 mps 713 mmHg 59%
    07:00 +26°C° 0 mm 2 mps 714 mmHg 53%
    08:00 +27°C° 0 mm 2 mps 714 mmHg 48%
    09:00 +29°C° 0 mm 2 mps 714 mmHg 43%
    10:00 +30°C° 0 mm 2 mps 714 mmHg 38%
    11:00 +33°C° 0 mm 3 mps 714 mmHg 33%
    12:00 +34°C° 0 mm 3 mps 713 mmHg 31%
    13:00 +35°C° 0 mm 3 mps 712 mmHg 28%
    14:00 +36°C° 0 mm 3 mps 712 mmHg 26%
    15:00 +37°C° 0 mm 3 mps 711 mmHg 25%
    16:00 +37°C° 0 mm 3 mps 711 mmHg 25%
    17:00 +37°C° 0 mm 3 mps 710 mmHg 24%
    18:00 +36°C° 0 mm 3 mps 711 mmHg 26%
    19:00 +35°C° 0 mm 3 mps 711 mmHg 29%
    20:00 +34°C° 0 mm 3 mps 712 mmHg 31%
    21:00 +32°C° 0 mm 2 mps 712 mmHg 34%
    22:00 +31°C° 0 mm 2 mps 713 mmHg 37%
    23:00 +30°C° 0 mm 2 mps 713 mmHg 39%

    21 November, Wednesday

    Time Temperature Precipitation Wind Pressure Humidity
    00:00 +30°C° 0 mm 2 mps 713 mmHg 41%
    01:00 +29°C° 0 mm 2 mps 712 mmHg 43%
    02:00 +28°C° 0 mm 2 mps 712 mmHg 45%
    03:00 +28°C° 0 mm 2 mps 712 mmHg 47%
    04:00 +27°C° 0 mm 2 mps 712 mmHg 50%
    05:00 +27°C° 0 mm 2 mps 712 mmHg 52%
    06:00 +28°C° 0 mm 2 mps 712 mmHg 47%
    07:00 +29°C° 0 mm 2 mps 713 mmHg 42%
    08:00 +31°C° 0 mm 2 mps 713 mmHg 38%
    09:00 +32°C° 0 mm 2 mps 712 mmHg 34%
    10:00 +35°C° 0 mm 2 mps 712 mmHg 31%
    11:00 +36°C° 0 mm 2 mps 712 mmHg 27%
    12:00 +37°C° 0 mm 2 mps 711 mmHg 25%
    13:00 +38°C° 0 mm 3 mps 710 mmHg 23%
    14:00 +39°C° 0 mm 3 mps 709 mmHg 21%
    15:00 +40°C° 0 mm 3 mps 708 mmHg 21%
    16:00 +40°C° 0 mm 3 mps 708 mmHg 21%
    17:00 +40°C° 0 mm 3 mps 707 mmHg 20%
    18:00 +39°C° 0 mm 3 mps 707 mmHg 23%
    19:00 +38°C° 0 mm 3 mps 708 mmHg 26%
    20:00 +36°C° 0 mm 2 mps 708 mmHg 29%
    21:00 +35°C° 0 mm 2 mps 709 mmHg 31%
    22:00 +35°C° 0 mm 2 mps 709 mmHg 34%
    23:00 +34°C° 0 mm 2 mps 710 mmHg 36%

    22 November, Thursday

    Time Temperature Precipitation Wind Pressure Humidity
    00:00 +32°C° 0 mm 2 mps 710 mmHg 36%
    01:00 +32°C° 0 mm 2 mps 710 mmHg 36%
    02:00 +31°C° 0 mm 2 mps 709 mmHg 37%
    03:00 +31°C° 0.1 mm 2 mps 710 mmHg 36%
    04:00 +30°C° 0.1 mm 2 mps 710 mmHg 36%
    05:00 +30°C° 0.1 mm 2 mps 710 mmHg 36%
    06:00 +31°C° 0.2 mm 3 mps 711 mmHg 35%
    07:00 +33°C° 0.2 mm 4 mps 712 mmHg 33%
    08:00 +34°C° 0.2 mm 5 mps 713 mmHg 32%
    09:00 +34°C° 1.1 mm 6 mps 714 mmHg 36%
    10:00 +33°C° 1.1 mm 8 mps 715 mmHg 40%
    11:00 +33°C° 1.1 mm 10 mps 716 mmHg 44%
    12:00 +31°C° 0.7 mm 9 mps 716 mmHg 47%
    13:00 +28°C° 0.7 mm 7 mps 716 mmHg 50%
    14:00 +26°C° 0.7 mm 6 mps 716 mmHg 53%
    15:00 +26°C° 0 mm 6 mps 715 mmHg 49%
    16:00 +27°C° 0 mm 5 mps 715 mmHg 45%
    17:00 +28°C° 0 mm 4 mps 715 mmHg 41%
    18:00 +27°C° 0 mm 3 mps 715 mmHg 41%
    19:00 +26°C° 0 mm 3 mps 716 mmHg 42%
    20:00 +26°C° 0 mm 2 mps 716 mmHg 42%
    21:00 +25°C° 0 mm 2 mps 717 mmHg 43%
    22:00 +25°C° 0 mm 2 mps 717 mmHg 44%
    23:00 +24°C° 0 mm 2 mps 717 mmHg 45%

    23 November, Friday

    Time Temperature Precipitation Wind Pressure Humidity
    00:00 +24°C° 0 mm 2 mps 717 mmHg 47%
    01:00 +24°C° 0 mm 2 mps 716 mmHg 50%
    02:00 +23°C° 0 mm 2 mps 716 mmHg 52%
    03:00 +23°C° 0 mm 2 mps 716 mmHg 57%
    04:00 +21°C° 0 mm 2 mps 715 mmHg 61%
    05:00 +21°C° 0 mm 2 mps 715 mmHg 66%
    06:00 +21°C° 0 mm 2 mps 716 mmHg 65%
    07:00 +23°C° 0 mm 2 mps 716 mmHg 64%
    08:00 +24°C° 0 mm 2 mps 716 mmHg 62%
    09:00 +25°C° 0 mm 2 mps 716 mmHg 58%
    10:00 +27°C° 0 mm 3 mps 715 mmHg 54%
    11:00 +28°C° 0 mm 3 mps 715 mmHg 50%
    12:00 +29°C° 0 mm 3 mps 714 mmHg 48%
    13:00 +30°C° 0 mm 4 mps 713 mmHg 45%
    14:00 +32°C° 0 mm 4 mps 712 mmHg 43%
    15:00 +32°C° 0 mm 4 mps 712 mmHg 43%
    16:00 +32°C° 0 mm 4 mps 711 mmHg 42%
    17:00 +33°C° 0 mm 5 mps 711 mmHg 42%
    18:00 +32°C° 0 mm 5 mps 712 mmHg 46%
    19:00 +30°C° 0 mm 5 mps 712 mmHg 50%
    20:00 +29°C° 0 mm 5 mps 713 mmHg 54%
    21:00 +28°C° 0 mm 4 mps 714 mmHg 58%
    22:00 +27°C° 0 mm 4 mps 714 mmHg 62%
    23:00 +26°C° 0 mm 4 mps 715 mmHg 66%
    Show more